Weather in Luzhki

Russia / Ryazan Oblast     54°39′56″N   39°20′03″E
temp.,
°C
wind,
m/s
gust,
m/s
humid.,
%
clouds,
%
prec.,
mm/h
press.,
hPa
HPBL,
m
10 may, mon
mon1000:00+4nw4108999 0.0 1020214
03:00+3nnw411915 0.0 1022231
06:00+3nnw5138899 0.0 1024361
09:00+8n7126425 0.0 1024975
12:00+11n8104847 0.0 10251409
15:00+13nne7948100 0.0 10251542
18:00+12nne6106379 0.0 1025711
21:00+7n41177100 0.0 1026236
11 may, tue
tue1100:00+8ne5137999 0.0 1026477
03:00+6nne5139098 0.0 1026302
06:00+7nne613896 0.0 1026380
09:00+12ne711755 0.0 1026543
12:00+18ne79645 0.0 1025897
15:00+20ene79605 0.0 10241314
18:00+17e51176100 1.7 1025389
21:00+12s489399 1.9 1027305
12 may, wed
wed1200:00+9s22915 0.0 102815
03:00+8wnw228929 0.0 102711
06:00+9nw338576 0.0 102770
09:00+11n3892100 0.1 1024298
12:00+14e61493100 0.5 1022704
15:00+15e91584100 1.3 10201155
18:00+12sse7139324 2.4 1021628
21:00+8sse22945 2.4 102325
13 may, thu
thu1300:00+7e3395100 0.0 102337
03:00+7e359759 0.0 1022100
06:00+10e3998100 0.0 1021237
09:00+13ese51098100 1.2 1020365
12:00+14ese3696100 7.6 1020282
15:00+18sse3574100 7.9 1019978
18:00+18se34820 0.3 1019441
21:00+14se33925 0.5 102029
14 may, fri
fri1400:00+12se2294100 0.0 102021
03:00+12e2295100 0.0 102027
06:00+13e359625 0.0 1020138
09:00+18se468318 0.0 1018441
12:00+22se676785 0.0 10181238
15:00+23se586798 0.0 10171470
18:00+22se51075100 0.0 1015529
21:00+18se41393100 0.0 1015302